EST,Max TemperatureF,Mean TemperatureF,Min TemperatureF,Max Dew PointF,MeanDew PointF,Min DewpointF,Max Humidity, Mean Humidity, Min Humidity, Max Sea Level PressureIn, Mean Sea Level PressureIn, Min Sea Level PressureIn, Max VisibilityMiles, Mean VisibilityMiles, Min VisibilityMiles, Max Wind SpeedMPH, Mean Wind SpeedMPH, Max Gust SpeedMPH,PrecipitationIn, CloudCover, Events, WindDirDegrees
2013-2-1,28,24,21,16,10,4,74,56,36,30.21,29.97,29.76,10,8,1,14,6,28,0.00,4,Snow,276
2013-2-2,25,20,15,18,12,5,89,73,43,30.27,30.11,30.02,10,5,1,12,4,22,0.04,6,Snow,214
2013-2-3,27,20,12,18,15,8,93,81,58,30.01,29.90,29.79,10,5,1,7,0,,0.00,7,Snow,294
2013-2-4,28,24,21,18,10,4,86,56,36,29.95,29.89,29.78,10,9,1,10,5,20,0.00,5,Snow,250
2013-2-5,28,26,23,24,19,14,89,77,64,29.97,29.91,29.87,10,6,1,9,1,,0.01,8,Snow,31
2013-2-6,37,28,19,25,17,6,93,68,37,30.35,30.09,29.90,10,7,2,12,2,18,0.00,5,,313
2013-2-7,30,22,15,15,11,9,77,62,45,30.50,30.42,30.32,10,10,9,7,1,,0.00,3,,47
2013-2-8,30,28,27,27,25,15,93,84,61,30.30,29.91,29.69,10,3,0,15,10,28,0.17,8,Fog-Snow,29
2013-2-9,30,24,18,27,15,4,93,65,33,30.36,29.99,29.75,10,7,0,17,5,32,0.22,3,Fog-Snow,339
2013-2-10,37,19,1,15,7,-3,92,62,23,30.47,30.39,30.29,10,10,10,5,1,,0.00,0,,78
2013-2-11,39,32,24,37,31,15,100,91,69,30.27,29.89,29.66,10,2,0,5,1,,0.15,8,Fog-Rain-Snow,214
2013-2-12,42,35,28,30,24,21,93,62,47,29.96,29.84,29.72,10,9,0,10,4,20,0.00,8,Fog,247
2013-2-13,41,31,21,31,24,18,92,69,47,29.94,29.80,29.70,10,8,2,5,1,,0.00,4,Snow,98
2013-2-14,43,34,24,30,25,21,93,74,45,29.99,29.88,29.71,10,8,2,8,1,,0.00,2,Snow,261
2013-2-15,51,38,26,32,26,22,89,62,38,29.99,29.95,29.90,10,8,3,10,4,20,0.04,4,Rain,223
2013-2-16,35,32,27,32,23,8,93,70,45,29.98,29.91,29.78,10,8,1,10,3,21,0.03,6,Snow,354
2013-2-17,27,22,16,8,2,-3,47,39,33,29.99,29.80,29.71,10,10,10,16,10,32,0.00,3,,324
2013-2-18,34,24,15,14,5,-1,63,45,27,30.25,30.17,30.04,10,10,10,14,7,23,0.00,1,,288
2013-2-19,41,30,19,36,26,14,97,81,49,30.15,29.85,29.68,10,6,2,12,2,18,0.21,5,Rain-Snow,215
2013-2-20,33,28,24,20,11,7,59,49,41,29.98,29.85,29.73,10,10,10,12,9,24,0.00,5,,272
2013-2-21,30,24,19,11,10,8,68,53,43,30.32,30.10,29.97,10,10,10,16,8,30,0.00,4,,303
2013-2-22,37,26,15,26,18,11,84,68,50,30.40,30.33,30.26,10,10,10,8,1,,0.00,3,Rain,111
2013-2-23,37,34,32,36,34,27,100,92,82,30.25,30.02,29.84,10,4,1,8,2,,0.03,8,Rain,27
2013-2-24,45,38,30,36,30,19,100,77,53,29.99,29.83,29.78,10,8,2,13,3,22,0.01,6,,329
2013-2-25,41,34,28,27,25,20,85,69,53,30.25,30.13,30.00,10,10,9,9,3,16,0.00,6,,336
2013-2-26,42,33,24,30,27,21,92,75,60,30.29,30.15,29.90,10,8,4,15,4,21,0.05,6,Rain-Snow,73
2013-2-27,46,40,33,43,36,28,93,88,76,29.90,29.63,29.51,10,5,2,16,10,25,0.33,8,Rain,16
2013-2-28,46,40,33,36,31,28,100,79,55,29.63,29.59,29.56,10,7,0,6,1,,0.00,7,Fog-Rain,262